Weather observations for the past three days for
Titusville
Metric (Imperial)
Date Time (edt) Wind (kph) Vis. (km) Weather Sky Cond. Temperature (ºC) Relative Humidity Wind Chill (°C) Heat Index (°C) Pressure Precipitation (cm)
Air Dwpt 6 hour altimeter (cm) sea level (mb) 1 hr 3 hr 6 hr
Max. Min.
05 18:47 E 13 11.27 Fair CLR 28 14 42% 28 76.23 0.0
05 17:47 E 15 11.27 A Few Clouds FEW050 28 13 40% 28 76.23 0.0
05 16:47 E 13 11.27 A Few Clouds FEW050 29 13 37% 28 76.2 0.0
05 15:47 E 15 11.27 A Few Clouds FEW050 29 12 35% 28 76.25 0.0
05 14:47 E 15 11.27 Partly Cloudy SCT065 30 13 35% 29 76.28 0.0
05 13:47 E 20 11.27 Partly Cloudy SCT075 30 13 35% 29 76.3 0.0
05 12:47 E 13 11.27 Partly Cloudy SCT075 30 13 35% 29 76.33 0.0
05 11:47 E 13 11.27 Partly Cloudy SCT075 29 14 40% 29 76.3 0.0
05 10:47 E 15 11.27 Partly Cloudy SCT075 28 14 42% 28 76.3 0.0
05 09:47 E 7 11.27 Partly Cloudy SCT075 25 18 65% 26 76.28 0.0
05 08:47 E 7 11.27 Partly Cloudy SCT075 25 18 65% 26 76.28 0.0
05 07:47 E 9 11.27 Fair CLR 24 18 69% 25 76.25 0.0
05 06:47 Calm 11.27 Fair CLR 21 17 78% 76.17 0.0
04 20:47 E 9 11.27 Fair CLR 24 15 57% 25 76.25 0.0
04 19:47 E 9 11.27 Fair CLR 25 14 51% 26 76.23 0.0
04 18:47 E 19 11.27 Partly Cloudy SCT040 26 14 48% 26 76.2 0.0
04 17:47 E 19 11.27 Partly Cloudy SCT040 27 14 45% 27 76.2 0.0
04 16:47 E 19 11.27 Partly Cloudy SCT040 26 14 48% 26 76.23 0.0
04 15:47 E 28 11.27 Partly Cloudy SCT040 27 14 45% 27 76.25 0.0
04 14:47 E 28 11.27 Partly Cloudy SCT040 27 14 45% 27 76.3 0.0
04 13:47 E 28 11.27 Partly Cloudy SCT040 28 14 42% 28 76.33 0.0
04 12:47 E 19 11.27 Partly Cloudy SCT045 27 13 42% 27 76.38 0.0
04 11:47 E 19 11.27 Partly Cloudy SCT042 28 14 42% 28 76.38 0.0
04 10:47 E 26 11.27 Partly Cloudy SCT042 27 14 45% 27 76.38 0.0
04 09:47 NE 22 11.27 Partly Cloudy SCT038 26 13 45% 26 76.35 0.0
04 08:47 NE 24 11.27 Partly Cloudy SCT035 26 15 51% 27 76.3 0.0
04 07:47 NE 13 11.27 Partly Cloudy SCT035 25 14 51% 26 76.28 0.0
04 06:47 NE 13 11.27 Fair CLR 23 16 65% 76.23 0.0
03 20:47 E 19 11.27 Partly Cloudy SCT030 24 15 57% 25 76.28 0.0
03 19:47 NE 19 11.27 Mostly Cloudy BKN030 25 15 54% 26 76.25 0.0
03 18:47 NE 19 11.27 Mostly Cloudy BKN030 25 15 54% 26 76.25 0.0
03 17:47 NE 19 11.27 Mostly Cloudy BKN030 25 16 57% 26 76.25 0.0
03 16:47 N 28 11.27 Mostly Cloudy BKN030 26 15 51% 27 76.25 0.0
03 15:47 NE 22 G 37 11.27 Mostly Cloudy BKN030 27 15 48% 27 76.28 0.0
03 14:47 N 22 G 37 11.27 Mostly Cloudy BKN030 27 16 51% 27 76.38 0.0
03 13:47 N 22 G 37 11.27 Mostly Cloudy BKN030 26 16 54% 27 76.38 0.0
03 12:47 NE 22 G 33 11.27 Overcast OVC030 25 16 57% 26 76.4 0.0
03 11:47 NE 22 G 33 11.27 Mostly Cloudy SCT028 BKN034 25 15 54% 26 76.4 0.0
03 10:47 NE 30 11.27 Partly Cloudy SCT028 SCT034 24 16 61% 25 76.38 0.0
03 09:47 N 26 11.27 Mostly Cloudy BKN049 23 16 65% 76.33 0.0
03 08:47 NE 22 G 31 11.27 Overcast SCT030 OVC045 22 17 73% 76.3 0.0
03 07:47 NW 17 11.27 Overcast SCT025 OVC035 20 18 88% 76.23 0.0
03 06:47 NW 11 11.27 Overcast BKN030 OVC045 20 19 94% 76.23 0.0
02 20:47 NW 11 11.27 Partly Cloudy SCT055 23 20 83% 75.87 0.0
02 19:47 NW 15 11.27 Partly Cloudy SCT055 SCT070 24 20 78% 24 75.82 0.0
Date Time (edt) Wind (kph) Vis. (km) Weather Sky Cond. Air Dwpt Max. Min. Relative Humidity Wind Chill (°C) Heat Index (°C) altimeter (cm) sea level (mb) 1 hr 3 hr 6 hr
6 hour
Temperature (ºC) Pressure Precipitation (cm)